TimeMDT,TemperatureF,Dew PointF,Humidity,Sea Level PressureIn,VisibilityMPH,Wind Direction,Wind SpeedMPH,Gust SpeedMPH,PrecipitationIn,Events,Conditions,WindDirDegrees,DateUTC
12:58 AM,26.4,10.4,51,30.09,10.0,SE,9.2,-,N/A,,Clear,130,2014-04-15 06:58:00
1:58 AM,24.8,10.9,56,30.04,10.0,SSE,8.1,-,N/A,,Clear,160,2014-04-15 07:58:00
2:58 AM,23.0,10.6,59,30.00,10.0,South,5.8,-,N/A,,Clear,180,2014-04-15 08:58:00
3:58 AM,23.7,11.1,59,29.97,10.0,SSE,9.2,-,N/A,,Clear,160,2014-04-15 09:58:00
4:58 AM,23.9,12.0,61,29.94,10.0,ESE,5.8,-,N/A,,Clear,120,2014-04-15 10:58:00
5:58 AM,23.2,13.3,66,29.91,10.0,SSE,5.8,-,N/A,,Clear,160,2014-04-15 11:58:00
6:58 AM,25.2,15.3,66,29.88,10.0,West,1.2,-,N/A,,Clear,280,2014-04-15 12:58:00
7:58 AM,31.3,16.9,55,29.86,10.0,Variable,2.3,-,N/A,,Clear,0,2014-04-15 13:58:00
8:58 AM,41.2,20.3,43,29.82,10.0,South,6.9,-,N/A,,Scattered Clouds,180,2014-04-15 14:58:00
9:43 AM,44.6,23.0,43,29.74,10.0,South,5.8,-,N/A,,Mostly Cloudy,180,2014-04-15 15:43:00
10:53 AM,50.0,23.0,35,29.72,10.0,South,6.9,-,N/A,,Scattered Clouds,180,2014-04-15 16:53:00
11:00 AM,51.8,23.0,33,29.71,10.0,South,6.9,-,N/A,,Scattered Clouds,180,2014-04-15 17:00:00
12:00 PM,57.2,23.0,27,29.68,10.0,Variable,2.3,-,N/A,,Partly Cloudy,0,2014-04-15 18:00:00
12:58 PM,61.0,19.2,20,29.68,10.0,ENE,8.1,-,N/A,,Clear,70,2014-04-15 18:58:00
2:00 PM,62.6,21.2,20,29.61,10.0,Variable,3.5,-,N/A,,Partly Cloudy,0,2014-04-15 20:00:00
2:58 PM,62.6,21.2,20,29.59,10.0,East,4.6,-,N/A,,Mostly Cloudy,90,2014-04-15 20:58:00
3:58 PM,62.6,21.6,21,29.57,10.0,Variable,5.8,-,N/A,,Overcast,0,2014-04-15 21:58:00
4:03 PM,62.6,23.0,22,29.60,10.0,Variable,5.8,-,N/A,,Overcast,0,2014-04-15 22:03:00
4:58 PM,63.0,22.3,21,29.58,10.0,West,9.2,-,0.00,,Overcast,260,2014-04-15 22:58:00
5:58 PM,60.8,26.2,27,29.57,10.0,ESE,5.8,-,N/A,,Overcast,120,2014-04-15 23:58:00
6:58 PM,59.7,25.9,27,29.58,10.0,East,4.6,-,N/A,,Overcast,80,2014-04-16 00:58:00
7:13 PM,60.8,26.6,27,29.53,10.0,East,13.8,-,N/A,,Mostly Cloudy,90,2014-04-16 01:13:00
7:58 PM,58.5,26.8,30,29.55,10.0,North,13.8,-,N/A,,Mostly Cloudy,350,2014-04-16 01:58:00
8:58 PM,53.6,32.9,45,29.59,10.0,NNW,12.7,-,N/A,,Clear,340,2014-04-16 02:58:00
9:35 PM,53.6,32.0,44,29.58,10.0,North,26.5,31.1,N/A,Rain,Light Rain,10,2014-04-16 03:35:00
9:58 PM,50.9,35.6,56,29.60,10.0,NNW,26.5,32.2,0.00,Rain,Light Rain,330,2014-04-16 03:58:00
10:07 PM,48.2,35.6,62,29.58,10.0,NNW,21.9,32.2,N/A,,Scattered Clouds,330,2014-04-16 04:07:00
10:47 PM,46.4,37.4,71,29.58,10.0,NNW,29.9,36.8,N/A,Rain,Light Rain,330,2014-04-16 04:47:00
10:58 PM,45.7,39.0,78,29.60,10.0,NNW,27.6,35.7,0.00,Rain,Light Rain,330,2014-04-16 04:58:00
11:58 PM,42.4,40.3,92,29.61,10.0,NW,20.7,-,0.02,Rain,Light Rain,320,2014-04-16 05:58:00